TimeEST,TemperatureF,Dew PointF,Humidity,Sea Level PressureIn,VisibilityMPH,Wind Direction,Wind SpeedMPH,Gust SpeedMPH,PrecipitationIn,Events,Conditions,WindDirDegrees,DateUTC
12:53 AM,26.1,21.0,81,29.99,10.0,SW,8.1,-,N/A,,Clear,230,2012-12-23 05:53:00
1:53 AM,25.0,19.9,81,29.97,10.0,SW,6.9,-,N/A,,Clear,220,2012-12-23 06:53:00
2:53 AM,25.0,19.0,78,29.95,10.0,SW,9.2,-,N/A,,Clear,220,2012-12-23 07:53:00
3:53 AM,23.0,18.0,81,29.94,9.0,WSW,5.8,-,N/A,,Clear,240,2012-12-23 08:53:00
4:53 AM,21.9,17.1,82,29.92,9.0,SW,6.9,-,N/A,,Clear,220,2012-12-23 09:53:00
5:53 AM,21.9,16.0,78,29.91,10.0,SW,5.8,-,N/A,,Clear,220,2012-12-23 10:53:00
6:53 AM,21.0,16.0,81,29.92,9.0,West,4.6,-,N/A,,Clear,260,2012-12-23 11:53:00
7:53 AM,19.9,15.1,81,29.93,8.0,WSW,4.6,-,N/A,,Clear,250,2012-12-23 12:53:00
8:53 AM,21.0,16.0,81,29.94,6.0,WSW,4.6,-,N/A,,Haze,250,2012-12-23 13:53:00
9:53 AM,26.1,19.0,75,29.95,7.0,West,6.9,-,N/A,,Clear,280,2012-12-23 14:53:00
10:40 AM,28.4,21.2,74,29.93,8.0,West,4.6,-,N/A,,Mostly Cloudy,280,2012-12-23 15:40:00
10:53 AM,28.9,21.0,72,29.96,9.0,West,5.8,-,N/A,,Overcast,280,2012-12-23 15:53:00
11:53 AM,30.0,23.0,75,29.97,10.0,WNW,9.2,-,N/A,,Overcast,300,2012-12-23 16:53:00
12:53 PM,32.0,23.0,69,29.97,10.0,NW,9.2,-,N/A,,Overcast,310,2012-12-23 17:53:00
1:53 PM,32.0,21.0,64,29.96,10.0,NW,11.5,-,N/A,,Overcast,320,2012-12-23 18:53:00
2:53 PM,30.9,21.0,67,29.97,10.0,NW,12.7,18.4,N/A,,Overcast,320,2012-12-23 19:53:00
3:53 PM,30.9,21.0,67,29.98,10.0,NNW,9.2,-,N/A,,Overcast,330,2012-12-23 20:53:00
4:53 PM,30.9,21.0,67,30.01,10.0,WNW,5.8,-,N/A,,Overcast,300,2012-12-23 21:53:00
5:53 PM,30.0,21.9,72,30.02,10.0,WNW,5.8,-,N/A,,Overcast,300,2012-12-23 22:53:00
6:53 PM,30.0,19.9,66,30.03,10.0,WNW,9.2,-,N/A,,Overcast,290,2012-12-23 23:53:00
7:53 PM,28.9,19.9,69,30.06,10.0,WNW,4.6,-,N/A,,Overcast,290,2012-12-24 00:53:00
8:53 PM,28.9,19.0,67,30.07,10.0,NNW,4.6,-,N/A,,Overcast,330,2012-12-24 01:53:00
9:53 PM,28.0,17.1,63,30.07,10.0,North,6.9,-,N/A,,Overcast,360,2012-12-24 02:53:00
10:23 PM,26.6,17.6,69,30.03,10.0,North,3.5,-,N/A,,Overcast,360,2012-12-24 03:23:00
10:53 PM,27.0,17.1,66,30.06,10.0,North,4.6,-,N/A,,Overcast,10,2012-12-24 03:53:00
11:40 PM,24.8,15.8,69,30.02,10.0,NE,3.5,-,N/A,,Scattered Clouds,40,2012-12-24 04:40:00
11:53 PM,25.0,16.0,69,30.05,10.0,NE,3.5,-,N/A,,Partly Cloudy,50,2012-12-24 04:53:00